Theta_e
333 333 332 332 332 333 333 332 332 332 332 332 333 331 330 334 335 336 335 334 332 333 333 335 334 332 331 330 330 329 329 329 329 329 328 328 331 335 337 337 337 337 336 336 336 336 335 335 334 333 333 332 330 330 331 331 330 330 329 330 330 330 329 331 330 329 329 329 329 329 328 328 328 329 330 330 330 329 329 329 328 329 328 328 328
333 333 333 332 331 332 333 333 332 332 331 330 330 331 330 331 334 336 337 335 333 333 333 334 334 333 330 329 330 330 329 329 328 328 328 329 330 333 336 337 337 338 337 335 336 336 334 334 333 332 332 331 330 329 330 330 329 330 330 329 329 328 329 330 331 330 330 330 329 329 328 329 331 331 331 330 330 330 330 330 329 328 327 327 327
334 333 333 332 331 330 332 332 333 333 333 332 329 330 331 330 332 333 335 334 333 333 334 334 333 333 332 329 330 330 329 329 329 328 328 328 329 331 334 336 336 337 338 338 337 335 333 334 333 332 332 330 332 330 328 328 328 328 328 327 328 328 329 330 329 329 329 329 329 329 331 331 331 332 331 331 331 331 330 330 330 329 329 328 328
333 333 333 332 332 332 331 332 333 333 334 333 332 332 331 332 333 333 333 332 332 332 334 332 331 330 330 329 331 330 329 329 328 328 328 329 329 329 331 333 338 337 338 338 339 336 333 333 331 332 331 330 331 330 330 329 329 328 328 328 328 329 329 329 329 329 330 330 331 331 331 331 331 331 331 331 330 330 330 330 330 330 329 329 329
333 334 336 332 332 332 332 332 333 333 333 333 332 332 331 332 333 334 333 332 331 334 335 333 331 331 330 332 331 331 330 329 328 328 329 329 328 328 330 332 332 338 339 338 338 338 334 332 332 333 332 332 331 331 330 329 328 327 328 329 329 329 328 328 328 328 329 331 331 331 332 331 331 331 331 331 330 330 330 330 329 329 329 329 329
334 333 333 332 331 332 333 333 333 333 333 333 333 332 331 331 332 332 334 331 331 333 333 332 331 328 329 330 330 331 330 331 330 329 330 330 330 328 329 329 330 330 334 337 338 338 337 334 333 333 332 331 329 329 331 328 328 327 327 328 328 328 327 328 327 327 329 331 332 331 331 331 330 330 330 330 330 329 329 329 329 329 329 329 329
334 334 333 333 332 331 332 333 333 333 334 334 333 332 332 331 332 330 329 329 330 333 333 330 326 328 327 329 330 331 331 331 331 331 331 330 329 329 328 329 328 328 332 329 337 338 337 336 332 333 332 331 330 328 328 328 327 328 328 328 327 326 327 327 327 327 328 331 332 331 331 330 330 330 329 329 329 329 329 329 329 329 329 329 329
335 334 333 333 333 331 332 333 334 333 334 332 333 332 331 331 332 331 328 330 329 329 332 328 326 328 328 330 329 330 330 331 331 331 332 331 330 329 328 327 328 327 333 327 327 333 336 336 335 335 332 332 330 329 329 329 328 329 328 328 326 327 327 327 328 328 328 331 331 331 330 330 330 329 330 329 329 329 329 329 329 329 328 328 329
335 335 333 333 332 333 331 333 334 333 333 332 332 332 331 332 331 333 330 328 329 329 330 328 328 328 329 327 328 330 330 330 331 331 332 330 329 329 327 327 329 336 329 326 328 328 335 337 335 334 334 331 330 328 328 329 329 329 329 327 327 327 327 328 328 328 329 330 330 330 330 330 329 329 329 328 329 329 329 329 329 329 329 328 328
335 335 334 335 334 332 331 333 333 332 332 331 331 330 330 331 330 329 328 327 326 326 326 327 328 327 327 327 328 328 328 329 331 335 331 330 329 327 326 327 329 330 327 327 327 328 329 334 334 332 334 333 330 327 329 330 329 329 329 328 328 328 328 329 330 329 329 330 330 330 329 329 329 329 329 329 328 329 329 329 329 329 329 329 329
335 335 334 335 334 332 333 332 333 333 332 329 330 331 331 331 331 329 328 328 328 329 328 326 327 326 326 326 328 328 328 329 328 330 331 330 330 329 328 327 327 329 327 327 326 327 327 326 325 323 327 332 331 329 329 329 329 330 329 329 328 328 329 330 331 331 331 331 330 329 329 328 329 329 329 329 329 329 330 330 329 329 329 329 329
335 334 333 333 332 332 331 332 332 332 331 330 329 329 329 329 327 327 326 327 329 328 329 328 326 326 326 325 326 327 327 329 330 330 330 330 331 331 328 328 328 328 327 327 326 326 326 325 326 322 323 330 332 331 331 330 331 330 330 330 329 329 330 330 331 332 331 330 330 329 328 328 329 329 330 330 330 331 331 330 330 330 329 329 329
335 333 333 335 334 332 331 331 331 332 331 331 331 329 329 329 327 326 327 324 325 327 327 328 324 322 323 324 326 327 329 329 328 328 329 329 329 329 329 329 329 328 327 327 326 325 325 324 323 322 323 324 327 331 331 331 331 331 331 330 331 330 330 331 332 333 331 330 330 329 329 329 329 329 330 330 331 331 330 330 329 329 329 329 329
336 333 333 332 332 331 331 331 331 332 332 331 328 331 328 327 328 324 326 325 324 326 327 328 322 321 318 317 319 322 327 328 326 326 328 328 328 328 328 328 329 328 328 326 325 325 325 324 323 322 323 324 324 325 327 327 329 331 330 330 329 330 331 331 333 333 331 330 330 330 329 329 329 329 330 330 330 330 330 330 330 329 329 329 329
335 334 333 332 332 332 332 331 331 332 332 332 330 330 329 329 328 327 323 324 325 327 326 327 323 322 320 318 314 315 318 324 326 327 329 327 327 327 328 328 329 329 328 326 325 324 325 324 323 322 322 324 323 324 325 326 326 331 330 331 330 329 331 331 332 333 332 331 330 330 330 330 330 330 330 330 330 330 330 330 330 329 329 329 329
334 333 334 332 332 333 332 331 331 332 331 330 330 330 328 328 328 328 326 324 325 325 328 327 325 322 316 317 314 315 311 316 322 327 331 328 327 326 327 327 328 329 328 326 325 324 325 324 323 322 323 323 323 324 324 322 327 330 330 330 331 331 331 332 333 333 332 331 330 331 330 330 330 330 330 330 330 330 330 329 329 329 329 329 328
333 333 334 333 332 332 332 332 331 331 331 330 329 329 330 330 330 329 327 326 323 323 326 328 326 327 322 316 313 312 313 315 321 323 327 326 327 327 328 326 326 328 328 327 326 325 325 324 324 323 323 323 323 324 325 324 324 329 329 331 331 331 332 332 333 333 333 331 331 331 330 330 330 330 330 330 329 329 329 329 329 329 328 328 327
333 333 334 334 332 333 332 331 330 331 331 331 331 330 330 330 331 331 330 328 327 322 322 326 327 327 326 324 322 316 315 317 320 316 325 327 326 328 328 328 326 327 328 327 327 326 326 325 325 323 324 323 324 324 325 324 327 325 325 328 330 329 328 331 333 334 334 332 332 332 331 330 330 330 330 330 330 328 328 329 329 328 328 326 325
333 333 333 334 333 333 332 332 332 331 332 331 331 331 331 332 332 331 331 330 327 325 325 324 326 327 327 326 326 325 324 321 317 318 316 322 325 325 327 327 327 327 327 327 328 327 327 327 326 324 324 324 325 325 325 325 328 327 330 328 328 327 327 325 329 334 334 333 333 333 330 330 331 330 330 331 329 328 328 327 326 326 326 325 324
332 332 333 334 334 333 333 332 332 332 332 332 332 332 331 332 331 331 331 331 329 328 327 326 323 324 327 326 326 327 327 325 324 321 319 317 318 325 328 326 326 326 327 328 328 328 327 328 327 326 325 325 325 325 325 325 327 327 328 327 327 327 326 326 324 325 330 333 335 334 332 331 331 331 331 331 329 328 327 326 325 325 325 325 323
333 332 332 334 334 333 332 331 331 331 332 332 332 331 331 331 330 330 331 331 329 329 327 327 325 325 325 325 326 325 325 324 325 323 318 318 318 320 321 325 326 326 327 328 328 329 329 328 329 328 326 326 327 326 326 326 326 327 327 324 327 326 326 326 322 321 321 330 332 334 333 332 332 333 332 331 330 328 326 325 325 324 325 324 323
330 332 331 333 332 332 331 331 330 331 332 331 331 329 330 331 332 330 330 330 331 330 329 328 327 327 326 326 324 324 323 322 323 322 321 321 318 320 321 320 319 323 326 326 328 328 328 329 329 329 328 327 328 328 327 327 327 327 327 325 326 326 326 325 321 318 317 324 332 332 333 333 333 333 332 331 330 327 326 325 325 325 324 323 322
331 331 331 332 331 330 329 330 330 331 332 331 330 330 330 330 332 332 331 330 330 331 329 329 328 327 326 325 325 324 323 320 320 321 320 318 318 320 322 323 322 321 324 326 327 328 328 327 328 329 329 328 329 329 328 328 328 327 326 326 325 327 326 322 319 316 315 322 332 331 333 334 332 334 332 331 329 327 327 325 325 324 324 323 323
331 330 329 329 330 330 331 330 330 329 327 330 331 331 331 330 329 328 328 329 330 330 330 328 328 326 325 326 325 325 324 323 323 323 322 321 320 319 321 323 322 322 325 325 326 326 327 326 327 329 329 329 329 330 330 329 329 328 326 325 325 325 326 323 318 317 313 321 324 331 332 332 331 332 331 332 329 327 327 325 325 325 324 323 323
328 327 328 328 329 330 330 329 329 329 329 330 330 330 330 330 329 329 329 328 328 328 327 327 328 325 324 325 326 325 325 326 326 325 326 324 321 317 320 323 319 321 324 325 323 326 327 327 327 329 329 329 330 330 330 330 329 327 325 324 323 322 323 325 321 315 316 315 320 327 330 331 332 331 331 331 329 327 327 325 323 321 321 323 323
327 326 329 329 329 329 330 330 330 330 329 328 329 329 330 329 328 327 327 328 328 327 327 326 326 327 327 325 325 326 327 327 326 326 325 319 318 319 319 319 319 320 323 324 326 322 325 327 328 329 329 329 329 330 330 330 329 326 325 325 321 320 319 321 323 318 316 315 314 317 320 324 326 326 328 329 328 322 320 319 316 316 315 315 321
327 328 328 328 329 329 328 328 328 328 328 329 329 328 328 328 328 328 328 328 328 328 327 327 326 327 328 327 325 325 327 328 327 326 326 324 321 321 320 316 317 319 318 322 323 323 323 325 327 328 329 328 329 330 330 329 328 324 322 325 323 318 317 318 321 322 316 316 313 314 314 318 320 319 319 320 317 318 321 320 318 316 314 315 318
325 327 329 329 329 328 328 328 328 327 327 328 328 328 328 328 328 328 327 329 328 328 328 329 328 329 328 328 326 326 327 327 327 328 328 327 326 322 321 320 317 313 318 317 319 321 325 322 326 329 329 328 329 329 329 328 327 322 325 325 323 319 315 315 318 322 319 317 315 313 313 315 315 315 316 319 320 320 320 320 319 317 314 316 321
324 326 328 330 330 328 328 327 327 327 327 327 327 327 328 327 326 326 326 327 328 328 328 327 328 328 327 327 326 326 326 327 327 327 326 326 325 324 323 322 321 317 314 315 317 319 322 324 321 325 328 328 326 328 328 328 325 322 324 324 323 321 316 315 314 318 316 315 316 314 316 315 316 318 320 321 321 322 321 319 317 317 315 319 322
323 325 325 325 326 329 328 327 327 327 327 326 326 327 328 328 327 326 326 326 326 327 327 328 327 328 326 326 326 325 326 325 326 327 327 326 324 324 324 324 323 319 317 315 316 321 321 324 324 323 326 327 326 326 327 327 320 323 325 325 323 322 315 313 312 313 311 313 313 310 311 314 317 319 322 321 320 320 318 316 315 315 317 321 322
321 321 322 323 324 326 326 327 327 326 327 327 326 326 327 327 327 326 326 326 326 326 327 327 327 328 328 326 326 326 327 326 326 327 328 327 325 325 324 324 322 322 319 318 314 318 323 321 323 325 326 326 326 326 326 324 321 323 325 325 325 319 314 314 312 312 312 313 311 311 315 314 312 314 318 319 319 318 317 317 319 318 320 321 319
317 318 318 319 321 322 325 326 325 325 326 326 325 325 324 325 326 326 326 326 326 326 326 327 327 328 328 327 326 326 328 328 327 327 328 328 328 326 323 323 323 323 321 318 317 315 321 322 322 323 326 325 326 324 324 324 322 321 325 325 324 318 318 318 312 311 311 311 311 316 323 317 313 315 318 320 320 319 319 320 320 321 321 316 312
314 314 315 316 318 320 324 326 326 325 324 324 324 324 325 326 327 327 327 327 326 325 326 326 327 327 327 327 327 327 327 327 327 327 328 328 327 326 324 323 323 323 321 319 317 315 318 320 322 323 325 325 323 325 323 323 322 324 322 324 323 321 321 319 316 310 310 309 308 311 313 310 312 319 320 319 320 319 316 315 316 313 314 313 310
312 312 313 315 317 319 322 325 326 326 326 326 325 324 324 324 324 326 326 326 326 326 326 326 327 327 327 326 326 327 328 326 327 328 327 326 325 325 324 323 323 322 323 320 318 317 315 317 320 323 323 325 322 324 322 322 322 323 323 323 322 322 322 319 317 313 309 309 308 310 310 310 311 314 313 311 311 311 310 310 311 310 312 308 304
311 312 313 314 315 318 321 324 325 325 325 325 324 324 324 325 325 325 326 326 326 326 326 326 327 327 326 325 325 326 327 327 327 327 327 326 325 324 324 324 322 322 322 323 320 317 317 317 321 321 321 322 321 322 323 323 323 324 322 321 321 323 323 320 318 317 306 307 307 309 309 309 310 311 310 309 309 308 307 308 308 308 307 305 303
310 311 312 311 312 313 316 319 322 323 324 324 323 323 324 325 325 325 325 326 326 326 326 326 326 326 326 326 326 325 325 325 327 327 328 327 324 324 324 323 322 322 322 322 322 320 318 317 319 321 321 319 318 323 323 324 323 323 322 322 323 323 322 320 319 318 309 307 307 308 309 309 310 309 309 308 308 307 307 308 307 307 305 305 304
309 310 310 309 309 310 312 314 317 319 321 323 324 324 325 325 325 326 326 327 327 327 326 325 326 326 325 325 325 325 325 324 325 326 327 326 325 324 323 323 322 322 322 322 321 320 319 318 318 321 321 319 319 321 323 321 321 321 322 321 321 321 320 320 321 320 308 307 308 309 308 308 308 308 308 307 306 306 306 307 306 305 305 304 304
308 308 307 307 307 308 309 311 313 315 318 321 316 314 314 317 322 326 326 327 327 327 327 326 326 325 325 326 326 325 324 324 324 325 325 323 324 323 322 322 322 322 322 321 321 320 320 319 318 318 320 317 317 319 322 321 319 319 319 320 321 321 319 318 319 319 314 313 313 311 307 307 308 307 307 306 306 305 306 306 305 305 305 304 304
306 306 306 305 306 306 306 307 308 310 315 314 310 307 307 308 313 320 325 326 326 326 327 327 326 325 325 325 325 325 324 323 323 323 322 322 323 322 321 321 321 321 320 320 320 320 320 319 318 319 319 319 316 315 319 322 321 321 318 317 316 319 319 318 317 318 317 314 311 308 310 311 309 308 306 306 306 305 305 304 304 305 304 302 302
305 305 305 304 304 304 305 305 306 307 311 311 308 305 303 303 305 312 320 324 325 325 325 326 325 325 325 326 325 325 325 325 324 322 323 322 323 323 322 322 321 321 320 319 319 319 319 318 318 317 319 317 315 318 321 320 319 317 319 317 314 314 316 317 317 314 315 314 311 311 308 309 307 306 305 305 305 304 303 304 305 305 304 301 301
305 305 304 304 303 303 303 303 303 304 307 309 308 305 300 299 301 303 312 321 325 324 324 324 324 324 324 325 325 325 327 327 321 319 320 320 323 322 321 322 321 320 319 319 319 319 318 318 317 317 317 317 314 314 315 316 315 314 315 315 313 314 315 314 314 317 315 314 312 311 310 310 308 308 307 306 304 303 304 305 305 305 302 300 299
304 304 304 303 303 302 302 302 302 302 304 306 307 302 299 298 298 300 306 316 322 324 323 323 323 323 324 324 325 326 322 320 317 310 308 310 315 323 322 322 321 320 319 318 318 319 318 317 316 316 315 315 312 313 314 316 317 315 312 311 310 311 311 309 309 310 316 315 312 310 310 311 310 308 309 307 307 307 305 305 304 303 301 299 299
303 303 303 302 302 302 301 301 300 301 302 304 300 295 295 295 296 298 302 310 320 323 323 322 322 322 323 324 323 324 321 319 317 307 305 305 305 309 310 315 319 321 318 318 317 319 317 317 317 316 316 315 314 313 315 315 315 312 310 310 310 309 307 306 303 304 315 316 313 311 309 311 311 308 309 308 308 306 304 302 301 301 300 299 299
303 303 302 301 301 301 301 301 300 300 301 302 296 294 293 293 294 297 300 307 319 322 322 321 321 321 321 322 321 322 323 323 321 319 311 304 303 305 305 307 307 309 311 318 318 318 318 317 316 316 316 316 316 312 314 314 312 310 310 309 310 309 307 306 304 304 311 317 313 310 308 311 312 309 307 308 307 304 302 300 300 299 299 299 299
302 301 301 300 300 300 300 299 299 299 299 298 294 293 293 293 293 294 301 310 320 320 320 321 320 320 320 320 320 321 323 322 324 321 318 312 304 304 305 305 305 304 305 307 309 321 321 318 317 316 317 317 316 312 313 314 314 309 308 308 309 310 309 308 305 305 309 315 311 308 305 307 308 306 305 303 302 301 300 300 300 299 299 299 299
301 300 300 299 299 299 299 299 298 298 299 296 293 294 296 293 292 293 302 315 318 316 314 315 317 319 320 320 319 319 318 320 319 317 315 312 315 315 314 314 315 310 303 304 303 306 313 320 318 316 317 317 316 314 313 314 313 310 307 307 310 310 309 309 309 308 310 313 309 305 301 302 304 303 300 299 300 300 300 300 299 299 299 299 299
300 299 299 298 299 299 299 298 298 297 298 294 293 294 297 299 299 300 313 311 309 309 308 308 307 308 312 318 318 317 317 316 315 315 315 314 315 317 316 315 314 314 314 314 317 318 317 320 319 318 317 317 317 316 315 313 313 313 311 310 311 311 309 308 308 308 309 309 307 304 299 300 301 299 298 298 300 299 300 299 299 299 299 299 298
300 300 299 299 298 298 299 298 297 296 297 293 292 293 295 297 301 308 308 307 305 305 305 305 304 305 306 307 313 317 317 316 311 303 309 315 316 313 310 308 307 306 302 298 294 306 314 314 312 310 308 308 307 316 315 313 314 313 311 312 312 310 310 308 305 305 304 304 305 303 299 298 299 298 297 299 299 299 299 299 298 299 299 298 298
299 299 298 298 298 298 298 298 297 296 296 294 292 293 294 296 301 306 305 304 304 303 302 302 302 302 302 304 306 310 315 314 303 300 302 307 312 309 307 306 305 303 301 300 295 294 294 294 294 295 296 296 301 307 304 304 310 311 312 310 309 311 309 305 303 304 303 301 300 305 302 298 300 299 297 298 298 298 298 298 299 298 298 298 298
298 298 298 298 298 298 298 297 297 296 296 295 292 292 293 294 301 304 303 302 301 301 301 301 301 300 301 301 303 303 307 304 295 297 300 308 310 308 307 306 304 302 302 303 302 300 296 296 296 296 296 296 296 300 302 302 302 307 312 309 310 311 308 306 303 302 298 299 300 305 301 299 300 300 298 299 298 299 298 298 298 298 298 298 298
298 298 298 297 297 297 298 298 299 296 296 295 293 292 293 293 299 302 302 301 300 299 299 299 300 299 299 299 298 296 299 297 294 295 297 306 310 309 308 306 303 302 303 305 305 306 306 305 305 305 303 303 306 307 304 300 303 308 313 313 312 310 307 305 302 300 300 298 301 304 301 299 299 299 297 296 296 300 300 298 297 297 298 298 298
Wind_Speed
4 4 3 3 3 3 2 2 2 2 3 4 4 4 4 4 4 4 4 4 4 5 4 5 3 2 5 1 5 6 6 6 6 5 4 5 5 9 14 12 5 10 11 11 10 10 9 10 9 9 9 9 8 8 9 8 8 8 8 8 8 7 8 10 10 10 9 10 10 11 11 12 12 13 13 13 13 13 13 14 15 15 14 13 11
4 3 3 4 3 2 3 3 3 3 2 3 4 4 5 5 4 4 4 4 4 5 4 5 5 3 3 2 6 7 6 7 7 6 5 5 5 6 13 9 7 7 8 10 11 10 8 10 9 9 8 8 8 7 8 8 8 8 8 8 7 7 9 10 11 11 10 10 11 11 12 12 13 13 13 13 13 14 13 14 14 14 14 13 11
4 4 3 3 2 2 4 3 4 4 4 3 2 4 5 4 4 4 4 5 5 5 4 5 5 3 1 4 5 5 5 6 6 5 5 5 5 5 7 11 9 7 8 9 10 9 9 10 9 8 9 8 9 8 7 7 7 8 8 7 7 7 9 10 10 10 10 11 11 12 12 12 13 13 13 13 14 14 14 14 14 14 14 13 13
3 4 4 4 4 4 4 4 5 4 4 4 3 3 3 3 3 2 3 3 4 4 4 5 6 5 1 3 5 5 5 6 6 6 6 5 5 5 5 6 9 9 5 8 7 8 8 9 7 9 9 9 10 9 9 8 8 7 8 8 8 9 9 9 9 10 11 11 12 12 12 13 13 13 13 14 14 14 14 14 15 14 14 14 13
4 5 5 4 4 4 4 5 5 5 3 3 3 3 3 4 4 2 2 2 3 4 3 4 5 2 5 5 4 5 2 2 4 5 5 4 4 5 4 5 4 6 7 10 8 9 9 7 8 10 9 10 9 9 9 9 8 8 9 10 10 10 10 10 10 9 10 12 11 12 13 13 14 13 13 14 13 13 13 14 15 14 14 15 15
4 4 4 4 4 5 5 5 5 4 4 3 4 3 3 5 6 3 3 3 4 5 4 5 1 4 7 6 4 4 5 4 2 2 5 5 6 3 3 4 4 3 4 11 10 6 6 9 8 10 9 10 9 9 11 8 10 8 9 9 9 9 9 10 10 10 10 12 12 12 13 13 13 13 13 14 13 13 13 13 14 14 14 14 14
3 4 4 4 4 4 5 5 4 4 4 4 4 3 4 5 4 5 5 4 4 4 4 2 2 1 4 5 4 4 5 6 5 5 6 7 7 4 3 4 4 3 4 4 5 5 9 8 9 11 11 10 10 8 9 9 9 10 9 9 9 9 10 10 10 9 10 12 12 13 13 13 12 12 12 13 13 13 13 13 13 14 14 14 14
3 3 4 4 4 4 4 4 4 3 4 3 4 4 4 4 4 4 4 6 4 5 4 3 2 3 3 6 4 1 4 5 5 6 5 5 5 7 5 5 4 5 4 4 3 3 10 8 5 10 11 11 10 11 11 11 10 10 10 9 9 10 10 10 11 10 11 12 13 13 12 13 12 12 11 12 12 12 13 13 14 14 14 14 14
3 3 3 3 3 3 3 3 3 4 4 4 4 4 4 4 4 4 3 4 4 5 3 4 4 4 6 6 4 2 3 5 5 6 6 6 5 5 6 6 5 6 5 4 4 3 7 8 6 6 10 11 10 9 10 12 12 11 11 11 11 11 11 11 11 12 11 11 12 12 13 13 12 12 11 11 12 12 12 12 12 13 13 14 13
4 3 3 3 2 3 3 3 3 4 3 3 4 2 3 4 5 3 2 0 2 5 6 1 3 3 6 7 3 2 1 2 5 6 7 7 7 7 6 6 6 6 5 5 4 5 4 6 8 6 7 10 10 10 12 12 12 12 12 12 12 12 12 11 12 12 11 11 12 12 12 12 11 12 11 11 11 11 11 11 11 12 12 12 13
4 4 4 4 3 3 3 3 3 3 3 2 4 3 3 3 5 3 2 5 3 3 0 4 1 4 5 7 6 6 6 5 3 4 5 7 7 7 5 6 6 5 6 5 5 5 5 3 4 4 3 11 10 12 13 13 12 13 12 13 12 12 12 12 12 12 11 11 12 12 11 11 11 11 11 11 11 10 10 11 10 10 10 11 12
4 3 3 3 3 3 3 2 3 3 4 5 5 4 4 3 3 4 2 4 1 2 2 1 1 2 4 2 2 3 2 2 3 5 5 6 6 5 7 6 6 5 6 6 5 5 5 5 4 5 3 8 11 10 10 11 12 13 14 14 13 13 13 12 13 13 12 11 11 11 10 11 10 10 11 11 10 10 10 10 10 10 10 11 11
3 3 4 4 3 2 2 2 3 3 4 5 4 4 3 3 2 2 3 3 4 5 4 1 4 1 2 2 2 2 2 1 5 4 5 5 4 6 6 6 6 6 6 6 6 5 5 5 5 4 3 4 7 10 10 6 7 13 15 14 14 14 13 12 13 13 12 12 12 11 10 10 9 8 9 10 11 11 11 10 10 10 10 11 11
4 3 3 3 2 2 3 4 4 4 5 4 3 3 3 2 3 2 3 4 6 6 6 4 2 5 4 2 0 1 3 5 6 5 4 5 5 6 6 7 7 7 6 6 6 6 6 6 5 5 4 4 5 5 6 6 6 9 14 14 14 13 13 13 13 14 13 12 12 11 10 10 9 8 8 9 10 11 10 11 11 10 11 11 12
4 3 3 3 3 3 5 5 5 5 5 5 3 4 3 3 4 4 3 2 4 3 5 7 5 1 3 1 4 4 3 4 4 5 6 4 1 2 4 5 7 7 7 7 6 6 6 6 6 5 5 5 5 5 5 6 5 11 12 12 15 15 14 13 14 14 13 13 12 11 10 10 10 9 9 10 11 11 11 11 12 12 12 12 13
3 3 3 3 4 5 5 5 6 5 5 4 4 4 3 3 3 4 3 3 3 5 5 6 5 6 3 6 3 2 2 7 6 5 6 5 3 5 4 5 5 6 6 7 7 7 6 6 7 6 6 6 5 4 5 5 8 9 10 9 12 15 16 15 14 14 13 13 12 11 11 11 11 10 10 9 9 10 12 12 12 11 11 11 12
3 3 3 4 4 5 6 6 5 5 4 4 4 5 5 5 5 5 6 6 5 3 4 6 8 7 5 3 1 1 4 1 5 3 5 4 7 6 5 3 4 6 7 7 7 7 7 7 7 6 6 6 5 5 5 5 6 5 5 11 9 11 16 17 16 15 15 13 13 12 12 11 10 9 10 9 10 10 11 12 12 11 11 10 9
3 3 4 4 5 6 5 5 5 4 4 5 5 5 5 6 6 6 6 6 6 5 5 5 8 9 7 5 5 5 3 2 4 5 3 5 6 6 7 7 6 7 6 7 7 7 7 8 7 7 7 6 6 6 6 6 5 5 5 7 14 10 10 13 17 16 15 15 14 14 13 12 10 10 10 11 11 11 11 11 11 11 10 8 7
4 3 4 5 6 5 5 5 5 5 5 6 6 8 7 6 5 5 6 5 5 7 8 6 4 7 7 7 3 1 3 5 5 2 3 3 5 8 8 8 7 7 7 8 8 7 7 7 8 7 7 6 6 6 6 6 7 7 7 8 13 12 11 10 11 16 16 16 15 14 13 13 12 11 10 12 12 11 11 10 9 8 8 7 7
4 3 2 3 4 3 4 5 5 5 5 6 8 7 6 5 4 6 6 7 8 8 8 6 7 6 7 8 7 4 2 1 2 3 2 5 5 6 6 8 7 7 8 8 9 8 8 7 7 7 7 7 7 7 6 6 6 7 7 10 11 14 11 12 10 10 14 16 16 16 15 14 13 11 10 12 13 12 11 10 10 9 9 8 7
1 0 2 2 3 5 6 5 5 5 5 6 7 5 6 7 7 7 8 7 6 7 7 8 7 9 5 7 8 8 4 3 4 3 3 5 4 8 6 4 6 6 7 6 7 7 8 8 8 8 7 7 7 7 7 6 6 6 7 12 12 13 13 12 13 9 11 13 15 16 16 16 14 15 14 13 13 12 11 11 11 11 11 10 8
2 4 4 5 5 6 7 6 6 7 5 5 5 4 7 8 8 7 7 8 7 9 10 9 8 7 6 5 7 7 6 4 4 5 4 4 5 8 8 9 8 7 7 7 8 9 7 7 7 8 8 7 7 7 7 7 7 6 8 13 13 13 12 12 13 11 10 10 13 16 17 17 17 15 15 15 15 12 12 11 12 12 12 10 10
4 4 3 5 6 5 5 5 5 6 6 6 7 8 8 8 7 7 8 10 9 8 9 10 9 8 7 7 9 10 10 9 9 7 6 5 5 7 8 9 10 8 9 9 7 7 7 7 8 8 8 8 7 7 7 7 8 9 13 14 14 13 12 11 12 11 11 9 11 15 16 16 14 15 15 16 15 13 13 12 12 11 11 11 11
3 4 5 5 5 5 6 6 6 5 5 6 4 7 7 6 6 8 10 10 9 9 9 10 10 8 10 9 7 6 7 7 6 7 8 8 8 7 8 7 6 7 3 6 5 5 7 7 8 8 8 7 7 8 7 8 8 14 12 15 15 15 14 11 11 11 12 11 9 11 13 14 13 14 15 17 15 14 13 13 12 12 12 11 11
4 4 6 6 6 6 6 6 6 7 7 7 8 8 9 8 7 8 9 11 10 9 8 10 8 8 10 9 9 8 9 7 8 9 8 6 7 5 5 7 8 7 5 7 5 6 7 7 7 7 8 7 7 8 7 8 8 11 13 10 16 14 14 14 11 9 12 13 12 9 11 12 12 12 14 17 16 14 13 12 11 10 10 10 11
5 5 6 6 5 6 6 7 7 7 5 7 8 8 8 8 8 8 9 10 9 8 8 9 9 9 9 8 8 9 9 8 8 7 8 5 4 7 5 4 4 5 2 7 6 5 7 7 7 6 6 7 8 8 8 8 8 11 14 9 12 14 14 14 13 10 11 14 12 10 9 8 4 7 10 14 14 12 12 11 10 10 9 9 9
6 7 6 6 6 6 6 6 7 6 4 6 7 7 8 8 8 10 9 8 9 9 10 11 12 12 11 10 10 10 10 7 7 8 9 9 11 10 9 7 4 4 5 5 4 9 6 6 7 7 8 8 8 8 8 7 9 12 13 9 9 14 13 14 13 12 9 13 12 11 11 14 12 4 10 12 13 12 11 11 11 10 8 7 8
5 6 7 6 6 6 5 6 6 6 7 7 8 8 8 8 8 8 9 7 9 10 10 10 11 12 11 10 10 11 9 9 8 9 10 9 8 5 6 8 9 6 5 5 5 7 8 7 5 7 9 8 7 7 8 9 7 12 12 8 7 8 13 13 13 12 11 11 12 11 13 15 13 11 10 11 13 12 12 11 11 9 7 7 6
6 5 7 7 6 6 6 6 6 6 6 7 7 8 8 8 8 9 9 9 9 10 8 8 9 9 8 11 10 9 9 9 9 8 7 4 4 8 10 10 9 8 7 7 8 7 8 9 7 7 8 7 7 6 8 8 8 10 8 8 8 8 12 13 13 12 12 12 11 12 13 13 15 13 11 13 12 12 12 11 10 9 8 7 8
6 6 7 8 8 7 6 6 5 6 7 7 7 8 8 8 9 9 9 7 7 7 7 8 8 8 7 9 9 7 8 9 10 10 9 9 9 9 10 9 7 10 8 9 8 8 6 7 6 7 8 8 7 6 7 7 11 13 8 7 7 8 13 13 12 12 12 12 12 12 13 13 12 11 15 15 14 14 12 11 10 9 7 10 12
7 7 8 8 8 9 8 7 5 5 6 7 6 6 7 8 8 8 8 7 7 8 7 8 8 8 8 10 10 9 8 8 9 9 9 9 9 9 9 7 3 6 6 7 6 5 6 8 7 5 9 9 8 6 5 6 10 12 9 8 8 10 13 11 13 12 12 12 12 11 11 11 13 14 14 16 14 14 13 11 9 8 9 11 8
7 6 6 7 8 9 9 8 7 6 6 6 6 6 6 6 7 7 8 8 9 9 8 7 7 8 9 10 11 10 8 7 7 8 8 8 9 8 7 7 9 6 3 4 8 6 6 7 7 5 8 9 9 8 7 5 8 13 8 8 8 11 8 7 12 13 12 11 11 11 12 12 13 14 14 14 14 13 12 11 10 10 10 9 12
6 7 7 7 7 8 9 8 7 7 6 6 5 5 6 7 7 7 7 7 8 8 7 8 8 8 8 8 9 10 9 9 7 8 8 8 8 7 6 7 8 6 6 7 8 4 0 1 5 6 8 9 8 9 9 7 8 8 7 6 7 9 6 8 8 11 13 12 11 11 12 12 14 14 14 14 13 14 13 12 11 10 10 11 11
5 6 6 6 7 8 8 8 7 7 7 6 6 5 6 7 8 7 7 8 9 9 8 8 8 8 9 10 10 9 8 9 10 9 8 7 7 8 6 8 7 8 7 6 6 6 4 2 3 4 8 10 9 9 11 10 10 8 8 7 5 7 7 6 8 7 11 11 11 11 12 13 14 15 15 14 14 13 12 11 11 10 11 11 10
7 6 6 7 8 8 8 8 8 8 8 7 6 5 6 7 8 8 8 8 9 9 8 8 8 7 9 9 10 9 8 9 9 8 8 8 8 8 9 8 9 8 7 7 7 7 7 6 6 6 7 8 9 11 10 9 10 9 10 10 8 7 5 6 6 4 8 10 11 11 12 14 14 15 15 14 13 12 12 11 10 10 11 10 9
8 7 7 9 9 10 9 10 10 9 9 8 7 5 6 7 7 8 8 8 8 8 8 8 8 7 8 9 9 8 9 10 9 9 8 8 9 9 9 7 9 8 8 6 7 5 4 7 6 8 7 8 5 6 6 7 10 8 8 7 9 9 6 6 6 5 7 10 11 12 13 13 13 14 14 14 13 12 12 11 11 10 10 10 9
9 8 9 10 10 10 9 10 10 10 11 10 8 7 6 6 7 8 8 8 8 8 8 8 8 7 8 9 9 8 8 10 10 10 9 10 8 8 10 8 8 8 8 9 6 2 5 8 7 5 6 4 3 7 10 10 7 6 5 8 9 9 7 6 5 5 9 11 11 12 12 12 12 13 13 13 13 13 12 12 11 10 10 10 9
9 10 10 9 9 10 10 10 10 10 10 9 10 9 10 10 10 8 8 8 8 8 8 8 8 7 9 8 8 8 9 9 10 9 8 6 5 6 9 7 7 10 11 9 8 5 4 6 8 5 5 7 4 6 9 9 10 9 8 8 7 7 7 8 6 5 5 5 5 6 7 9 11 13 13 13 13 13 12 11 11 11 10 10 9
10 10 10 10 9 9 10 10 10 11 10 7 7 8 9 10 11 10 9 8 8 8 7 8 8 7 7 8 6 6 7 9 9 8 6 8 9 8 9 9 10 10 10 9 9 10 10 8 7 8 8 5 8 10 7 8 8 9 10 9 7 6 6 8 8 5 5 5 5 7 7 8 9 8 11 13 13 13 12 12 11 11 10 10 9
8 8 9 10 9 9 9 10 10 10 10 9 8 9 10 10 11 12 10 8 8 7 7 8 8 7 7 7 7 8 8 8 8 7 8 9 9 10 9 9 9 10 10 9 9 9 8 7 9 9 8 8 6 4 6 8 7 6 8 9 10 9 9 7 7 9 6 7 6 5 6 8 8 9 10 10 12 12 13 12 12 11 11 10 10
7 8 9 10 10 11 10 10 11 9 9 8 6 10 12 11 9 12 12 10 8 7 7 8 7 6 6 6 6 7 9 12 9 8 8 7 7 8 9 10 11 11 10 9 9 9 8 8 8 6 8 8 7 8 9 10 11 11 9 7 8 9 8 7 5 6 7 9 6 6 5 6 8 6 6 6 5 9 9 10 8 11 12 11 11
8 9 9 10 10 11 11 11 10 9 8 7 12 18 17 11 11 9 10 11 8 7 7 7 7 7 7 6 6 11 10 10 10 10 12 11 9 6 8 11 11 11 12 11 10 10 10 10 10 10 10 10 11 13 13 13 11 7 8 8 8 7 7 6 5 2 6 9 9 9 6 5 6 5 5 5 5 7 7 6 6 8 10 12 11
9 9 10 11 11 11 11 11 12 9 8 8 17 17 18 17 11 8 8 10 9 5 5 6 6 5 5 5 4 7 8 8 9 12 12 13 11 11 11 14 13 12 10 10 11 11 10 12 12 11 12 13 13 13 14 13 11 12 11 10 9 9 10 10 8 3 5 9 8 7 7 5 6 7 5 5 6 4 5 6 9 12 12 11 11
10 9 11 11 10 11 9 11 10 9 8 12 19 20 18 16 11 8 7 8 8 5 4 4 5 5 5 5 4 3 4 6 6 8 10 10 12 15 17 18 17 16 14 13 13 12 13 13 11 12 13 13 14 12 11 11 12 10 11 10 10 12 10 9 8 8 7 10 9 8 7 5 6 7 6 5 5 5 5 9 12 12 12 12 12
8 10 11 11 11 11 11 12 11 11 9 16 23 21 17 13 11 8 6 8 5 1 2 3 3 3 3 5 5 4 5 9 9 5 4 8 11 15 16 16 14 11 14 17 16 17 14 11 11 12 13 13 13 12 13 15 14 13 11 10 10 11 11 10 8 6 9 11 9 7 7 5 6 7 6 3 5 4 6 9 12 12 12 12 12
9 10 11 12 11 12 12 12 10 11 9 21 22 21 15 9 8 5 6 5 5 8 8 8 7 5 4 4 3 2 2 3 3 3 4 7 8 10 9 7 5 6 8 12 11 8 10 12 14 13 11 7 11 13 13 12 14 14 14 13 12 11 11 10 8 9 10 12 13 9 5 5 5 8 6 3 4 4 5 8 12 11 12 12 12
9 10 11 11 10 10 12 12 11 10 11 25 23 23 23 20 17 9 8 9 8 7 8 8 9 9 9 7 2 2 2 3 2 3 5 6 7 6 5 5 4 6 4 3 6 6 7 9 8 10 8 9 11 10 10 12 16 11 10 12 13 10 8 8 8 7 8 6 11 10 6 5 4 7 4 5 4 5 4 5 8 10 11 11 11
8 8 9 9 11 11 12 12 10 9 14 26 24 23 22 19 15 10 8 9 9 8 9 9 9 8 9 9 8 2 2 2 4 7 6 4 4 5 6 5 5 5 4 5 6 2 4 3 3 5 4 5 5 9 5 4 9 10 8 6 8 10 11 9 9 6 6 4 5 8 7 5 3 8 5 4 6 7 5 5 7 9 8 9 10
8 9 9 9 9 11 13 14 14 13 15 23 25 24 22 20 12 10 10 9 10 10 9 9 9 9 10 11 8 7 3 1 3 3 4 5 5 6 6 7 5 7 5 6 13 14 14 13 10 8 3 3 13 18 16 15 11 11 11 11 12 11 11 11 7 8 7 6 0 7 10 9 6 8 7 4 4 5 5 5 4 6 8 7 8
9 8 8 9 10 11 13 14 14 13 15 21 26 24 23 22 15 11 9 9 10 10 9 10 10 10 12 22 16 7 8 9 11 11 10 7 6 6 6 7 7 6 5 4 8 10 14 14 14 14 14 13 10 12 18 19 17 14 14 14 13 11 12 12 11 7 4 2 3 8 10 9 9 9 10 5 5 3 4 4 4 5 7 6 7
7 7 8 8 9 11 11 12 19 17 15 19 25 25 25 24 16 10 10 10 12 11 10 10 10 11 12 13 20 15 10 12 16 14 13 8 6 4 3 7 9 8 4 4 7 8 7 9 7 9 10 10 8 9 10 13 14 14 11 14 12 13 13 10 11 10 7 0 3 5 10 8 11 8 13 9 3 2 3 4 4 4 4 4 5
Wind_Direction
177 189 169 191 177 170 198 221 189 195 185 210 199 218 225 222 226 223 218 217 217 245 246 258 259 253 259 134 170 160 158 154 157 167 171 169 175 168 163 165 158 157 157 159 161 156 158 158 156 153 154 152 150 148 148 143 140 136 133 125 120 118 119 112 112 105 108 110 111 111 110 109 110 104 100 97 94 93 90 89 89 88 85 83 83
176 172 174 204 195 191 204 235 223 209 184 210 219 218 228 227 231 226 223 223 225 238 233 253 258 232 228 148 174 165 169 159 161 168 169 169 174 169 164 157 151 163 160 165 166 169 175 165 163 157 152 149 151 155 151 150 146 138 130 130 130 128 124 121 116 117 113 114 117 121 120 113 109 106 102 100 97 93 91 92 94 93 91 88 85
167 168 182 193 199 198 225 235 241 233 218 214 203 220 236 229 230 235 225 218 229 239 233 251 262 255 241 141 169 162 167 160 156 161 165 169 177 170 165 161 164 170 171 175 175 175 172 164 166 168 155 158 153 156 157 155 147 139 131 133 140 137 121 119 121 121 123 123 123 118 116 116 112 106 104 101 99 95 93 93 93 94 93 91 88
171 171 177 182 197 204 219 227 238 230 228 229 202 215 217 237 247 246 257 255 247 240 228 231 257 259 300 104 154 162 169 161 158 168 170 170 174 176 162 161 175 184 188 157 177 190 174 165 170 161 161 156 155 157 159 157 149 143 139 127 128 131 129 126 126 130 128 122 120 118 113 113 110 103 99 100 99 100 98 96 96 95 92 92 93
189 192 192 189 189 199 208 224 234 232 220 226 225 222 257 264 253 237 291 288 271 259 238 219 240 324 8 31 131 131 119 141 153 166 172 165 176 171 158 158 167 180 172 162 189 200 181 171 171 160 162 154 156 160 156 150 151 151 138 138 137 137 136 134 133 128 124 123 122 117 115 108 103 103 104 97 97 97 93 91 91 93 96 95 92
188 201 193 188 187 199 211 222 225 230 222 208 210 193 232 261 268 288 264 265 266 260 232 235 81 62 70 62 71 113 117 102 103 80 57 38 318 315 160 147 162 176 176 178 194 239 177 178 182 169 165 167 164 167 156 155 149 152 148 141 141 141 140 137 136 135 129 126 123 118 112 107 104 107 106 105 98 98 100 96 96 94 94 95 94
205 202 207 193 189 198 214 218 210 211 214 210 197 192 193 227 250 269 278 265 253 256 236 200 115 123 128 121 93 111 129 146 148 137 156 183 157 199 253 161 166 178 181 165 191 200 168 187 187 173 160 166 166 172 159 150 159 156 154 149 150 149 140 140 141 142 139 124 122 121 115 110 110 111 110 108 108 107 104 104 100 97 100 102 98
229 212 218 203 195 205 218 209 195 197 210 209 197 201 197 208 219 212 251 270 268 261 228 137 175 133 98 79 83 132 171 164 157 149 172 181 197 188 184 178 174 181 177 168 156 177 168 186 190 168 164 165 168 167 161 158 156 158 158 159 157 150 147 145 147 151 143 132 128 125 121 123 123 120 116 113 110 107 106 107 106 100 99 100 100
239 236 230 218 203 210 225 217 194 191 208 212 209 205 193 205 218 214 202 262 282 253 219 163 170 172 115 131 179 152 193 165 172 178 170 180 199 216 178 179 179 184 173 173 161 165 173 179 178 185 164 167 172 170 164 162 164 163 160 162 158 156 153 149 148 149 147 139 133 128 127 127 125 124 122 119 115 110 109 106 108 108 106 104 103
231 229 238 236 208 200 208 213 207 200 207 214 236 209 198 201 229 218 160 76 40 16 330 194 157 122 103 91 66 39 323 252 186 179 179 182 198 205 196 181 178 179 170 174 168 166 173 178 172 184 173 171 167 170 169 158 163 162 160 161 160 156 153 153 147 149 151 145 136 132 131 132 130 129 128 126 120 117 113 113 112 113 111 107 105
224 223 224 233 221 205 200 206 200 209 186 200 248 225 200 209 225 215 127 65 57 98 239 293 89 100 110 139 159 159 180 211 227 186 184 184 196 203 181 189 185 176 174 175 171 171 168 180 174 188 197 174 166 174 171 169 168 164 163 162 161 161 164 159 148 154 154 148 138 137 139 139 139 138 134 129 128 128 123 120 119 117 118 114 111
224 224 226 230 227 226 225 205 207 203 203 204 219 211 197 189 216 213 178 92 37 239 148 172 354 75 124 186 187 153 204 207 204 190 186 182 192 185 191 185 186 183 177 176 171 170 166 173 183 185 204 173 170 174 182 170 169 168 164 164 166 168 167 158 156 155 151 144 141 143 146 145 142 141 136 136 134 129 126 126 125 125 125 123 120
224 214 225 234 225 234 244 246 218 217 221 227 224 219 200 190 162 218 219 132 231 238 237 163 146 112 52 111 147 183 185 175 251 211 186 182 177 182 186 176 185 185 183 171 171 170 166 173 185 186 189 190 173 177 178 166 159 171 165 167 167 169 166 164 161 153 150 149 147 151 153 151 149 141 139 139 133 128 118 117 118 123 126 125 117
218 208 220 214 228 227 235 241 221 226 230 234 230 224 214 198 148 217 244 196 224 220 209 145 228 204 175 144 8 230 215 192 208 232 201 188 182 184 183 181 180 184 174 174 172 173 172 175 182 183 189 187 183 183 169 171 174 187 171 168 167 173 170 173 167 155 156 155 154 157 161 162 158 150 142 135 129 118 115 120 118 120 120 119 117
219 211 210 211 211 212 228 231 227 216 220 228 230 242 229 218 196 190 205 234 236 223 211 185 211 128 93 199 213 167 230 219 225 209 202 202 232 201 193 185 182 177 175 172 174 176 176 178 181 185 185 186 188 173 169 170 182 192 185 178 172 172 177 177 169 162 162 160 161 162 166 160 156 154 145 135 125 124 128 126 120 117 114 115 118
217 216 219 212 202 213 223 222 227 219 215 221 226 237 240 243 217 215 185 210 210 238 215 206 189 136 191 207 203 158 226 227 207 200 186 158 168 224 226 207 184 170 166 179 181 179 180 179 185 187 187 188 186 172 168 175 190 200 193 189 178 177 171 178 176 168 168 166 167 163 166 165 160 151 135 126 124 130 134 131 126 122 116 114 112
226 217 213 210 208 216 219 226 229 230 224 233 231 228 224 224 220 217 206 217 228 208 224 209 214 211 169 113 41 248 225 221 178 229 163 165 205 212 218 222 220 191 181 184 179 181 179 183 189 187 190 187 185 176 172 179 194 198 202 186 184 186 182 175 178 175 170 171 174 168 171 169 163 144 129 128 134 137 138 138 133 128 122 122 121
224 225 217 212 218 220 223 229 234 238 229 232 239 241 235 225 219 215 223 216 229 210 226 223 220 224 223 207 163 179 191 199 144 224 178 202 193 195 204 208 200 208 190 180 182 184 184 187 187 192 193 186 184 179 175 183 188 202 183 188 177 193 204 189 182 176 174 176 179 174 174 171 156 142 143 146 145 141 142 139 136 134 134 138 134
231 220 218 225 226 227 228 232 236 233 229 230 237 236 235 231 223 219 229 224 219 237 223 215 231 243 232 237 233 191 160 138 203 95 204 194 203 200 207 203 209 205 196 195 189 182 189 187 189 191 195 188 183 183 177 183 190 191 184 191 178 189 200 220 187 187 176 180 183 177 177 169 154 154 156 160 152 149 145 147 147 145 137 139 147
231 235 276 273 264 260 245 239 236 236 231 230 237 242 248 250 227 225 234 228 226 233 241 214 210 226 213 231 236 208 199 133 52 185 153 181 204 217 218 197 199 210 203 195 193 191 187 188 188 189 192 191 187 186 183 182 189 191 193 192 185 187 197 206 209 189 185 185 188 180 178 181 172 170 170 169 157 153 151 150 154 150 147 144 151
212 43 274 274 280 270 258 248 242 241 231 239 245 253 254 250 241 230 229 227 223 235 246 240 221 230 198 228 232 236 214 198 176 192 193 186 204 187 192 184 198 204 209 201 194 197 192 187 187 186 187 191 189 189 186 186 188 192 197 193 188 193 192 196 208 189 201 196 192 189 182 184 184 183 171 169 159 155 158 160 159 157 151 146 152
231 185 204 226 235 240 248 246 245 246 246 254 267 261 248 252 251 243 237 236 225 223 227 233 230 234 222 212 211 222 237 199 221 202 222 207 192 198 194 186 194 207 195 200 190 198 194 187 186 187 189 189 189 187 187 190 190 189 198 194 192 193 190 191 205 200 202 206 194 197 191 186 189 186 171 167 166 163 162 162 164 161 154 151 155
263 252 213 197 223 229 237 240 237 235 233 223 218 232 239 237 250 260 247 234 231 227 231 237 230 226 225 221 216 206 206 201 204 201 206 196 197 206 199 202 208 197 207 198 192 191 192 188 189 194 192 190 188 187 188 191 192 196 193 196 196 195 189 184 194 206 207 200 203 201 199 195 192 181 178 168 170 169 164 164 168 162 156 155 157
271 268 266 241 236 240 234 232 229 231 227 235 238 246 246 233 232 240 257 257 243 233 229 232 228 221 223 219 224 234 232 213 198 201 207 212 190 192 193 195 217 223 181 195 192 187 190 197 198 196 194 188 188 191 186 186 197 197 191 195 195 196 190 181 184 200 209 208 205 212 201 201 189 203 180 168 171 170 167 168 169 162 160 159 160
289 277 269 252 237 240 245 244 246 235 228 226 233 236 253 252 233 232 236 245 244 240 232 235 230 215 223 218 217 215 222 215 205 204 210 198 188 182 209 176 191 199 186 173 183 201 205 196 199 199 192 187 189 190 189 188 192 195 187 193 192 194 190 185 187 185 203 211 208 204 197 214 197 198 189 169 167 168 169 167 164 156 158 164 161
292 279 267 261 246 237 232 238 243 243 217 216 228 226 223 234 236 239 236 236 239 233 241 250 245 235 230 229 216 217 222 212 214 213 205 158 201 206 174 195 196 182 139 181 181 167 211 211 200 198 193 188 192 190 189 187 186 189 184 181 189 188 188 188 191 188 195 206 207 204 198 160 208 224 192 169 162 161 159 152 148 152 161 164 165
311 291 282 265 256 251 240 237 243 240 228 220 224 235 237 239 247 249 242 233 236 233 229 230 236 235 228 223 218 219 221 211 196 206 213 202 194 196 174 174 180 181 190 197 162 202 188 200 195 196 194 191 192 190 186 187 185 182 181 177 171 187 187 189 189 193 192 199 204 204 167 172 178 203 199 172 152 154 148 145 146 152 157 161 180
313 315 304 287 267 255 250 247 244 236 223 225 233 235 238 237 240 240 244 234 237 234 233 228 233 233 229 220 216 217 207 202 206 210 213 209 196 150 193 187 175 191 181 196 204 218 189 185 197 197 192 194 191 186 185 179 180 178 176 172 167 170 187 187 190 190 192 191 200 194 171 167 161 204 192 157 148 148 147 145 148 152 156 164 183
321 321 314 305 291 273 266 260 252 241 237 230 235 238 235 233 236 245 250 245 240 242 238 230 235 236 244 233 218 206 203 204 205 204 211 211 186 187 203 204 189 180 175 192 206 202 200 193 184 194 189 185 183 183 177 184 175 169 173 173 178 168 184 185 190 186 183 188 187 182 171 163 170 186 164 148 151 147 147 148 148 155 157 167 179
326 324 325 317 304 287 275 265 252 248 246 245 236 234 230 232 239 248 253 251 248 244 237 233 235 233 215 226 234 223 216 204 208 205 202 198 195 198 200 220 195 190 184 192 210 197 193 196 188 177 186 185 179 179 183 179 168 170 167 172 168 173 181 183 187 183 179 183 180 175 172 170 167 164 162 156 152 151 149 149 151 153 162 171 175
341 338 335 333 326 314 294 278 269 255 247 248 245 240 233 237 238 247 254 248 247 247 239 233 237 233 230 218 222 228 219 213 209 206 203 199 197 202 201 181 193 244 198 188 204 222 180 193 193 173 177 180 179 172 167 164 168 174 173 172 173 172 169 180 182 182 179 180 174 173 175 164 154 172 164 157 158 154 153 155 152 153 166 177 144
340 335 334 332 328 327 314 288 280 273 263 254 248 246 242 243 247 248 251 249 247 246 246 234 233 230 229 220 213 219 215 213 210 210 205 205 204 204 176 170 194 202 247 207 212 211 202 187 177 166 170 170 168 168 169 160 172 178 171 173 165 154 163 157 178 177 176 174 172 173 173 161 160 165 165 157 155 156 158 156 155 159 168 143 140
338 336 332 329 327 323 319 307 287 284 274 266 256 253 253 255 255 253 253 248 250 252 247 245 233 229 228 228 220 215 212 213 208 208 206 203 203 194 160 175 193 181 185 211 211 192 167 100 151 156 165 158 171 173 165 165 159 178 168 165 153 155 151 153 153 174 172 172 174 174 167 158 159 157 151 156 158 159 158 158 157 157 143 145 144
340 335 329 329 326 322 319 318 306 294 284 270 263 258 261 261 261 259 260 253 252 254 248 248 232 224 225 228 228 221 206 206 212 210 199 182 191 200 181 175 185 181 188 184 210 182 153 124 184 159 160 174 169 175 170 166 166 169 161 166 156 160 163 152 150 170 174 171 172 170 163 159 157 153 155 158 159 154 152 153 152 143 144 145 148
340 337 335 337 335 329 327 328 330 321 304 287 271 256 258 262 265 267 259 259 258 258 252 248 243 230 226 228 233 227 218 216 212 212 202 186 188 199 200 176 179 190 194 191 175 191 162 183 172 168 179 181 179 177 177 175 166 165 162 169 162 160 145 150 161 156 177 172 167 164 164 160 157 155 156 156 153 148 148 145 140 140 144 148 147
346 342 348 355 348 345 339 339 335 327 322 306 287 276 268 265 269 270 268 259 255 254 253 250 247 234 228 229 230 224 219 220 219 212 206 192 183 196 207 175 184 186 179 202 210 180 150 149 185 175 180 173 182 168 143 147 156 160 159 151 165 164 145 157 161 156 174 175 167 162 163 161 155 153 152 150 146 144 144 142 143 145 148 147 143
354 354 355 356 352 349 344 338 332 335 333 321 315 312 308 290 276 273 271 265 255 252 247 246 244 238 234 235 236 224 213 215 222 220 213 205 186 190 206 186 176 175 184 193 200 180 154 169 169 170 156 178 157 152 160 159 143 122 137 160 167 170 156 153 155 161 164 171 164 159 157 155 150 149 147 144 142 144 146 149 146 140 137 134 131
1 2 356 356 353 346 340 335 332 330 330 348 3 358 348 336 319 292 273 267 263 256 254 247 239 217 236 235 235 223 219 213 219 217 206 174 185 197 206 187 156 168 188 185 176 174 197 178 159 175 167 156 122 174 176 158 154 153 154 163 166 158 147 149 159 140 142 151 149 145 142 146 149 147 144 143 145 146 145 141 136 133 134 138 137
11 3 360 352 348 347 342 336 333 328 327 349 349 349 347 337 324 313 297 272 262 260 254 253 246 227 227 238 233 228 223 226 227 218 186 169 192 190 191 187 174 172 178 182 178 176 184 177 182 185 175 162 157 174 188 161 157 157 152 152 154 157 163 160 146 142 133 122 107 128 146 149 146 145 147 146 144 138 135 136 137 138 139 138 135
4 0 357 352 346 346 340 334 333 329 327 336 339 345 345 334 323 311 304 289 271 263 258 250 245 234 223 222 214 226 229 229 223 214 220 201 193 189 185 184 180 174 180 178 177 180 179 181 179 182 185 163 139 153 141 148 161 171 171 165 165 162 164 167 161 145 138 133 128 113 100 109 119 121 126 129 133 134 133 134 138 140 138 134 131
360 355 354 351 350 346 343 341 338 336 330 331 332 344 338 325 318 309 301 294 282 267 258 254 256 253 235 216 214 217 229 234 220 212 223 216 194 191 176 185 186 180 181 181 181 176 183 185 187 178 174 172 169 146 155 171 190 186 174 171 166 167 158 149 145 149 150 149 136 129 140 144 131 132 134 122 120 126 131 132 136 136 136 137 137
360 357 355 356 355 351 343 341 339 334 330 321 332 333 325 317 308 300 296 290 283 272 266 264 258 253 250 235 224 226 230 233 232 211 213 213 213 206 181 187 187 186 184 179 176 178 178 186 191 180 180 183 176 174 177 189 178 148 162 169 159 155 136 129 118 137 159 151 142 147 149 152 128 128 138 129 141 137 136 139 152 148 145 144 144
360 0 359 357 358 355 347 342 336 329 323 326 327 319 314 310 305 290 289 289 281 256 255 255 262 271 265 254 234 230 216 221 233 228 215 215 195 170 191 195 198 188 182 174 180 181 178 189 192 185 186 186 186 181 182 178 169 178 175 170 155 150 157 155 164 132 172 160 153 138 141 154 134 138 144 133 137 139 144 148 149 147 147 142 136
5 3 5 2 354 350 344 342 336 330 322 324 325 318 309 304 294 290 284 283 275 248 248 250 261 263 265 266 255 235 226 217 216 226 225 207 191 189 190 196 201 200 190 180 182 185 189 190 185 191 188 192 185 183 180 164 169 165 175 174 164 166 164 169 159 168 179 160 149 146 130 146 136 129 137 140 141 148 154 151 150 144 140 138 135
3 10 9 3 359 352 349 348 340 337 323 337 332 323 313 301 296 293 279 283 284 281 264 265 256 267 281 288 290 275 257 237 232 221 180 187 202 206 206 206 207 195 190 209 199 189 183 179 182 192 195 190 185 189 182 177 169 169 166 175 171 173 172 169 167 140 158 157 136 138 142 145 132 133 127 128 132 138 138 146 142 140 140 135 129
12 13 12 9 0 359 354 350 340 338 345 346 342 341 342 327 304 313 282 296 23 26 22 13 358 347 296 238 236 250 298 280 273 232 164 189 203 209 206 207 181 183 204 201 206 198 166 175 181 195 199 183 195 189 187 164 167 170 170 181 175 173 175 175 159 152 151 157 156 136 104 147 136 127 128 140 127 129 136 143 142 138 134 131 131
14 14 10 7 3 354 355 355 352 349 359 355 356 359 10 20 24 21 25 35 32 26 23 21 16 7 359 342 303 220 239 242 266 242 202 192 202 199 181 177 159 171 192 209 196 177 176 201 199 196 184 180 190 193 181 173 182 168 167 176 174 162 120 86 69 104 131 144 139 130 137 145 123 110 118 131 124 102 87 113 117 123 126 132 134
18 17 18 15 10 7 6 4 1 1 6 5 4 6 11 14 28 31 26 33 32 28 22 19 15 6 7 4 350 327 180 243 255 238 222 180 165 128 119 101 85 69 42 352 344 342 137 173 131 119 162 178 180 150 158 165 163 147 131 111 102 121 128 123 128 142 129 139 138 123 114 132 132 121 121 109 110 106 93 91 79 99 118 134 141
17 19 18 17 13 15 14 16 16 13 15 10 10 11 14 14 28 34 27 28 31 29 24 15 14 11 16 6 358 1 359 333 341 155 112 115 105 110 109 99 84 72 42 38 55 65 74 73 71 79 49 167 152 156 151 147 137 136 128 141 159 151 141 137 132 142 157 153 59 131 122 130 149 133 117 91 92 92 98 92 87 101 118 127 132
17 17 16 22 24 23 22 21 18 21 21 16 16 16 17 15 25 34 30 34 32 27 22 23 18 15 20 21 18 358 27 21 7 31 39 71 90 103 120 111 91 78 67 79 89 77 82 82 80 77 70 56 71 133 153 148 144 149 154 167 168 153 151 150 150 148 128 89 136 141 114 140 141 132 116 95 79 55 89 98 97 103 105 106 110
17 16 21 27 28 30 25 24 25 28 26 22 21 22 23 19 20 29 28 38 37 25 25 23 27 25 18 21 24 22 31 45 38 38 37 51 84 79 93 111 101 99 106 107 95 95 86 79 55 65 54 48 53 75 74 105 143 166 185 166 162 160 157 154 138 127 111 274 209 178 118 147 140 159 137 127 105 79 89 111 120 123 119 116 109